[[{"header":{"parameterUnit":"m.s-1","parameterCategory":1,"la1":30.2991,"la2":30.254,"lo1":-89.0895,"lo2":-89.0444,"dy":0.0017,"dx":0.0017,"nx":28,"ny":28,"refTime":"2024-06-01T21:00:00:Z","depth":0,"parameterNumber":2,"parameterNumberName":"U-component_of_WINDS"},"data":[0,0,0,0,0,0,0,0,0,0,0,0,0,0,0,0,0,0,0,0,0,0,0,0,0,0,0,0,0,0,0,0,0,0,0,0,0,0,0,0,0,0,0,0,0,0,0,0,0,0,0,0,0,0,0,0,0,0,-0.934,-0.934,0,-0.9338,-0.9338,-0.9338,-0.934,-0.934,-0.934,-0.934,-0.9336,-0.9336,-0.9336,0,0,0,0,0,0,0,0,0,0,0,0,0,-0.9343,-0.9343,-0.934,-0.934,-0.934,-0.9338,-0.9338,-0.9338,-0.934,-0.934,-0.934,-0.934,-0.9337,-0.9336,-0.9336,0,0,0,0,0,0,0,0,0,0,0,0,0,-0.9342,-0.9343,-0.934,-0.934,-0.934,-0.9338,-0.9338,-0.9338,-0.934,-0.934,-0.934,-0.934,-0.9337,-0.9336,-0.9336,-0.9333,0,0,-0.9335,-0.9335,0,0,0,0,0,0,0,0,-0.9342,-0.9341,-0.934,-0.934,-0.934,-0.9339,-0.9338,-0.9336,-0.934,-0.934,-0.934,-0.934,-0.9337,-0.9337,-0.9336,-0.9333,-0.9333,-0.9335,-0.9335,-0.9335,-0.9335,0,0,0,0,0,0,0,-0.9342,-0.9342,-0.9339,-0.934,-0.934,-0.934,-0.934,-0.9338,-0.9338,-0.934,-0.934,-0.934,-0.9337,-0.9337,-0.9336,-0.9333,-0.9335,-0.9335,-0.9335,-0.9335,-0.9327,-0.9327,0,0,0,0,0,0,-0.9342,-0.9342,-0.9339,-0.9339,-0.9341,-0.934,-0.934,-0.9339,-0.9338,-0.9338,-0.934,-0.934,-0.9337,-0.9337,-0.9336,-0.9333,-0.9335,-0.9335,-0.9335,-0.9327,-0.9327,-0.9327,0,0,0,0,0,0,-0.9342,-0.9342,-0.9339,-0.934,-0.934,-0.934,-0.9339,-0.9339,-0.9339,-0.9338,-0.9338,-0.9339,-0.9337,-0.9337,-0.9334,-0.9333,-0.9335,-0.9335,-0.9327,-0.9327,-0.9327,-0.9326,0,0,0,0,0,0,-0.9342,-0.9342,-0.9341,-0.934,-0.934,-0.9337,-0.9339,-0.9339,-0.9339,-0.9339,-0.9337,-0.9337,-0.9337,-0.9334,-0.9334,-0.9332,-0.9335,-0.9327,-0.9327,-0.9327,-0.9326,-0.9325,-0.9325,0,0,0,0,0,-0.9342,-0.934,-0.9341,-0.934,-0.9339,-0.9337,-0.9337,-0.9337,-0.9338,-0.9337,-0.9337,-0.9337,-0.9333,-0.9334,-0.9333,-0.9332,-0.9327,-0.9327,-0.9327,-0.9326,-0.9326,-0.9325,0,0,0,0,0,0,-0.9339,-0.934,-0.9341,-0.9338,-0.9338,-0.9337,-0.9336,-0.9337,-0.9336,-0.9336,-0.9336,-0.9335,-0.9333,-0.9332,-0.9333,-0.9329,-0.933,-0.933,-0.933,-0.9329,-0.9329,-0.9329,-0.9334,0,0,0,0,0,-0.9338,-0.9337,-0.9338,-0.9336,-0.9335,-0.9336,-0.9335,-0.9336,-0.9335,-0.9335,-0.9334,-0.9333,-0.9332,-0.933,-0.9329,-0.9326,-0.9326,-0.9325,-0.9324,-0.9324,-0.9324,-0.9323,-0.9322,-0.9326,-0.9326,-0.9326,0,0,-0.9336,-0.9336,-0.9336,-0.9335,-0.9335,-0.9334,-0.9336,-0.9334,-0.9333,-0.9334,-0.9332,-0.9332,-0.9331,-0.9328,-0.9327,-0.9327,-0.9323,-0.9324,-0.9324,-0.9323,-0.9322,-0.9322,-0.9322,-0.9326,-0.9326,-0.9326,0,0,-0.9332,-0.9332,-0.933,-0.933,-0.933,-0.9331,-0.933,-0.933,-0.933,-0.9329,-0.9329,-0.9328,-0.9326,-0.9325,-0.9324,-0.9321,-0.9321,-0.9321,-0.9319,-0.9318,-0.9318,-0.9317,-0.9316,-0.9316,-0.932,-0.932,-0.932,0,-0.9329,-0.9328,-0.9329,-0.9328,-0.9328,-0.933,-0.9328,-0.9328,-0.9327,-0.9327,-0.9328,-0.9325,-0.9324,-0.9322,-0.9321,-0.9321,-0.932,-0.9321,-0.9318,-0.9317,-0.9317,-0.9316,-0.9316,-0.932,-0.932,-0.932,-0.932,0,-0.9325,-0.9324,-0.9322,-0.9323,-0.9322,-0.9321,-0.9322,-0.9321,-0.9322,-0.9323,-0.9321,-0.932,-0.9319,-0.9319,-0.9319,-0.9317,-0.9317,-0.9318,-0.9319,-0.9317,-0.9316,-0.9315,-0.932,-0.932,-0.932,-0.932,0,0,-0.9317,-0.9319,-0.9319,-0.9319,-0.932,-0.9319,-0.9318,-0.9317,-0.9317,-0.9317,-0.9316,-0.9314,-0.9315,-0.9314,-0.9315,-0.9314,-0.9312,-0.9315,-0.9315,-0.9314,-0.931,-0.9309,-0.9309,-0.9312,-0.9312,-0.9312,-0.931,0,-0.9313,-0.9312,-0.9314,-0.9312,-0.9311,-0.9313,-0.9312,-0.9312,-0.9313,-0.9312,-0.9313,-0.9312,-0.9313,-0.9313,-0.9312,-0.9312,-0.9311,-0.9313,-0.9311,-0.9311,-0.9311,-0.9308,-0.9307,-0.9305,-0.9309,-0.9309,-0.9309,0,-0.9308,-0.9308,-0.9307,-0.9308,-0.9308,-0.9307,-0.9307,-0.9307,-0.9307,-0.9308,-0.9308,-0.9309,-0.9308,-0.9309,-0.9308,-0.9309,-0.9309,-0.9309,-0.9309,-0.9308,-0.931,-0.9308,-0.9304,-0.9303,-0.9309,-0.9309,-0.9309,0,-0.9303,-0.9303,-0.9302,-0.9303,-0.9304,-0.9304,-0.9304,-0.9305,-0.9305,-0.9305,-0.9305,-0.9305,-0.9305,-0.9304,-0.9305,-0.9306,-0.9304,-0.9305,-0.9304,-0.9304,-0.9303,-0.9303,-0.9299,-0.9303,-0.9303,-0.9303,-0.9303,0,-0.9298,-0.9297,-0.93,-0.93,-0.9299,-0.9301,-0.93,-0.93,-0.9301,-0.9301,-0.9302,-0.9302,-0.9303,-0.9303,-0.9304,-0.9303,-0.9303,-0.9303,-0.9303,-0.9303,-0.9303,-0.9302,-0.9302,-0.9303,-0.9303,-0.9303,-0.9303,0,-0.9292,-0.9295,-0.9294,-0.9296,-0.9296,-0.9296,-0.9297,-0.9297,-0.9298,-0.9297,-0.9297,-0.9299,-0.9299,-0.93,-0.93,-0.93,-0.9299,-0.9299,-0.9299,-0.9299,-0.9298,-0.9298,-0.9293,-0.9293,-0.9297,-0.9297,-0.9297,0,-0.9289,-0.9288,-0.9291,-0.9291,-0.9292,-0.9292,-0.9292,-0.9294,-0.9294,-0.9296,-0.9295,-0.9295,-0.9295,-0.9295,-0.9296,-0.9296,-0.9296,-0.9295,-0.9296,-0.9296,-0.9296,-0.9297,-0.9297,-0.9294,-0.9294,-0.9294,-0.9294,0,-0.9283,-0.9284,-0.9285,-0.9286,-0.9286,-0.9287,-0.9288,-0.9288,-0.9291,-0.9291,-0.9291,-0.9291,-0.9292,-0.9292,-0.9292,-0.9293,-0.9294,-0.9294,-0.9294,-0.9293,-0.9293,-0.9293,-0.9298,-0.9294,-0.9294,-0.9294,-0.9294,-0.9294,-0.9278,-0.9278,-0.928,-0.9281,-0.9282,-0.9283,-0.9283,-0.9284,-0.9285,-0.9286,-0.9287,-0.9287,-0.9288,-0.9289,-0.929,-0.929,-0.929,-0.929,-0.929,-0.929,-0.929,-0.9293,-0.929,-0.929,-0.929,-0.929,-0.929,0,-0.9272,-0.9274,-0.9275,-0.9276,-0.9277,-0.9279,-0.928,-0.9281,-0.9281,-0.9282,-0.9283,-0.9283,-0.9284,-0.9285,-0.9286,-0.9286,-0.9286,-0.9286,-0.9286,-0.9286,-0.9289,-0.9289,-0.9285,-0.9285,-0.9285,-0.9285,-0.9285,-0.9285,-0.9269,-0.9269,-0.9271,-0.9272,-0.9273,-0.9274,-0.9274,-0.9275,-0.9277,-0.9277,-0.9278,-0.9279,-0.9281,-0.9282,-0.9282,-0.9283,-0.9283,-0.9282,-0.9283,-0.9285,-0.9286,-0.9286,-0.9286,-0.9282,-0.9282,-0.928,-0.928,-0.928]},{"header":{"parameterUnit":"m.s-1","parameterCategory":1,"la1":30.2991,"la2":30.254,"lo1":-89.0895,"lo2":-89.0444,"dy":0.0017,"dx":0.0017,"nx":28,"ny":28,"refTime":"2024-06-01T21:00:00:Z","depth":0,"parameterNumber":3,"parameterNumberName":"V-component_of_WINDS"},"data":[0,0,0,0,0,0,0,0,0,0,0,0,0,0,0,0,0,0,0,0,0,0,0,0,0,0,0,0,0,0,0,0,0,0,0,0,0,0,0,0,0,0,0,0,0,0,0,0,0,0,0,0,0,0,0,0,0,0,3.1847,3.1846,0,3.1755,3.1754,3.1753,3.1704,3.1704,3.1704,3.1704,3.1606,3.1603,3.1601,0,0,0,0,0,0,0,0,0,0,0,0,0,3.1975,3.1973,3.1847,3.1846,3.1844,3.1755,3.1754,3.1753,3.1704,3.1704,3.1704,3.1704,3.1606,3.1603,3.16,0,0,0,0,0,0,0,0,0,0,0,0,0,3.1905,3.1973,3.1847,3.181,3.1805,3.1756,3.1754,3.1753,3.1704,3.1704,3.1704,3.1704,3.1607,3.1604,3.16,3.1579,0,0,3.1588,3.1587,0,0,0,0,0,0,0,0,3.1909,3.1901,3.1816,3.1812,3.1807,3.1741,3.1763,3.1694,3.1704,3.1743,3.1704,3.1704,3.165,3.1643,3.1626,3.1574,3.157,3.1588,3.1586,3.1584,3.1583,0,0,0,0,0,0,0,3.1914,3.1904,3.181,3.1815,3.181,3.1796,3.1786,3.175,3.1698,3.1739,3.1736,3.1726,3.1648,3.163,3.1623,3.1569,3.1588,3.1585,3.1582,3.1581,3.1496,3.1496,0,0,0,0,0,0,3.1926,3.1909,3.1813,3.1808,3.1859,3.1794,3.1783,3.1762,3.1698,3.1689,3.1726,3.1724,3.1636,3.1628,3.162,3.1592,3.1584,3.158,3.1578,3.1496,3.1496,3.1496,0,0,0,0,0,0,3.1929,3.1918,3.1817,3.1857,3.1843,3.1792,3.177,3.1761,3.1743,3.1688,3.1678,3.1717,3.1636,3.1625,3.159,3.1588,3.1579,3.1575,3.1496,3.1496,3.1496,3.1535,0,0,0,0,0,0,3.1933,3.1919,3.1911,3.1857,3.1841,3.179,3.1769,3.1759,3.1737,3.1733,3.1678,3.1668,3.1635,3.1596,3.1586,3.1582,3.1572,3.1496,3.1496,3.1496,3.1534,3.1537,3.1539,0,0,0,0,0,3.1937,3.1924,3.1911,3.19,3.1831,3.179,3.1781,3.1744,3.1737,3.1728,3.1694,3.167,3.159,3.1593,3.1581,3.1576,3.1496,3.1496,3.1496,3.1533,3.1536,3.1539,0,0,0,0,0,0,3.1977,3.1916,3.1901,3.1871,3.1836,3.1782,3.1769,3.1749,3.1714,3.1712,3.1666,3.1654,3.1624,3.1596,3.1601,3.1553,3.154,3.1538,3.1572,3.1575,3.1577,3.1584,3.1569,0,0,0,0,0,3.1982,3.1956,3.1904,3.1882,3.1866,3.1821,3.1802,3.1777,3.1738,3.1723,3.1686,3.1648,3.1615,3.1593,3.1559,3.153,3.1517,3.1521,3.1523,3.1526,3.1524,3.1508,3.1509,3.1497,3.1497,3.1497,0,0,3.1993,3.1957,3.1942,3.1889,3.1859,3.1832,3.1809,3.178,3.1759,3.1718,3.1683,3.1655,3.161,3.1579,3.1562,3.1555,3.1525,3.1526,3.1528,3.1525,3.1508,3.1509,3.151,3.1497,3.1497,3.1497,0,0,3.1998,3.1968,3.1947,3.1918,3.1875,3.1845,3.1841,3.179,3.177,3.1735,3.1705,3.1678,3.1621,3.1591,3.1568,3.1564,3.1541,3.1554,3.1567,3.1551,3.1552,3.1553,3.1552,3.1552,3.1553,3.1553,3.1553,0,3.2015,3.1974,3.1938,3.1912,3.189,3.1854,3.1832,3.1806,3.1753,3.1738,3.173,3.1659,3.1626,3.1587,3.1587,3.1569,3.1562,3.156,3.1556,3.1556,3.1556,3.1554,3.1554,3.1555,3.1555,3.1554,3.1554,0,3.1999,3.197,3.1959,3.1911,3.1887,3.1863,3.1823,3.1803,3.1781,3.1753,3.1718,3.1678,3.1635,3.1624,3.1601,3.1583,3.1579,3.1564,3.1551,3.156,3.1558,3.1557,3.1557,3.1557,3.1556,3.1556,0,0,3.2024,3.1959,3.1955,3.1933,3.1884,3.1861,3.1835,3.1796,3.178,3.1745,3.1723,3.1676,3.1663,3.1637,3.1611,3.1597,3.1598,3.1584,3.1582,3.1588,3.1576,3.1587,3.1587,3.1583,3.1583,3.1583,3.158,0,3.2022,3.1977,3.1944,3.1911,3.1885,3.1852,3.183,3.1797,3.177,3.1743,3.1712,3.1681,3.1665,3.1649,3.1635,3.1601,3.1595,3.1601,3.1561,3.156,3.1573,3.1586,3.1598,3.1597,3.1579,3.1578,3.1578,0,3.2013,3.1982,3.1947,3.1902,3.1889,3.187,3.1833,3.1808,3.1769,3.1751,3.1724,3.1697,3.1668,3.1658,3.1618,3.1623,3.1605,3.1586,3.1585,3.158,3.1569,3.1581,3.1596,3.1596,3.1576,3.1577,3.1577,0,3.2036,3.1984,3.1957,3.194,3.1886,3.1874,3.1851,3.1813,3.1792,3.1759,3.1745,3.1708,3.1688,3.166,3.1624,3.162,3.1588,3.1574,3.1571,3.1572,3.1565,3.1566,3.1577,3.1554,3.1554,3.1554,3.1554,0,3.2036,3.2016,3.1967,3.195,3.1927,3.189,3.1868,3.1841,3.1808,3.1785,3.1754,3.1733,3.1687,3.166,3.1632,3.1604,3.1594,3.1578,3.1571,3.1581,3.1583,3.1568,3.1567,3.1554,3.1554,3.1554,3.1554,0,3.2057,3.2024,3.1992,3.1945,3.1933,3.1918,3.1877,3.1859,3.1832,3.1803,3.1794,3.175,3.1717,3.1679,3.1633,3.1614,3.1588,3.1577,3.1602,3.1597,3.1597,3.1597,3.1598,3.1597,3.1575,3.1575,3.1575,0,3.206,3.2044,3.1997,3.198,3.1959,3.1932,3.1911,3.1875,3.1854,3.1811,3.1799,3.1764,3.1734,3.1683,3.1646,3.1611,3.1599,3.1602,3.1593,3.1605,3.16,3.1601,3.16,3.1604,3.1605,3.1605,3.1605,0,3.2068,3.2053,3.2026,3.1993,3.197,3.1942,3.1912,3.19,3.1858,3.1836,3.1804,3.1781,3.1735,3.1701,3.1662,3.1637,3.1614,3.1609,3.1606,3.1616,3.1631,3.1624,3.1608,3.1608,3.1608,3.1608,3.1608,3.1608,3.208,3.2065,3.203,3.2001,3.1976,3.1949,3.1931,3.1903,3.1875,3.1837,3.1816,3.1784,3.1747,3.1693,3.1669,3.1643,3.1635,3.1631,3.163,3.1629,3.1633,3.1636,3.1635,3.1635,3.1635,3.1635,3.1635,0,3.2087,3.2064,3.2038,3.1999,3.1976,3.1959,3.1926,3.1908,3.188,3.1849,3.1821,3.1784,3.1752,3.1714,3.1678,3.1665,3.1653,3.1657,3.1657,3.1652,3.1641,3.1647,3.1666,3.1666,3.1666,3.1666,3.1666,3.1666,3.2088,3.2063,3.2044,3.2005,3.1981,3.1951,3.1934,3.191,3.1885,3.1846,3.1819,3.1796,3.1761,3.1724,3.1693,3.1683,3.1671,3.1678,3.1664,3.1655,3.1652,3.165,3.1655,3.1676,3.1676,3.1677,3.1677,3.1677]}]]